W4GHW Weather Reports


Display with metric or nautical units.
time (UTC)temp
F
wind
direction
speed
MPH
gust
MPH
rain 1hr
in
rain 24hr
in
rain mn
in
humidity
%
barometer
mb
20260901205528 93 22 3.0 8.0 0.00 0.00 0.00 53 1017.3
20260901205030 93 49 2.0 7.0 0.00 0.00 0.00 53 1017.3
20260901204813 93 18 4.0 8.0 0.00 0.00 0.00 53 1018.3
20260901204533 93 111 2.0 7.0 0.00 0.00 0.00 53 1017.3
20260901204018 93 71 2.0 6.0 0.00 0.00 0.00 53 1017.4
20260901203515 92 117 1.0 8.0 0.00 0.00 0.00 55 1017.4
20260901203323 93 80 2.0 8.0 0.00 0.00 0.00 54 1018.4
20260901203029 92 98 3.0 8.0 0.00 0.00 0.00 54 1017.4
20260901202507 92 112 3.0 7.0 0.00 0.00 0.00 54 1017.5
20260901202057 92 123 2.0 4.0 0.00 0.00 0.00 55 1017.5
20260901202004 92 60 2.0 4.0 0.00 0.00 0.00 54 1017.4
20260901201852 92 78 2.0 6.0 0.00 0.00 0.00 55 1018.4
20260901201538 92 131 2.0 8.0 0.00 0.00 0.00 55 1017.4
20260901201034 92 72 4.0 8.0 0.00 0.00 0.00 52 1017.5
20260901200533 92 153 2.0 10.0 0.00 0.00 0.00 54 1017.6
20260901200321 93 42 3.0 10.0 0.00 0.00 0.00 52 1018.6
20260901200031 93 82 4.0 10.0 0.00 0.00 0.00 53 1017.6
20260901195522 93 98 2.0 7.0 0.00 0.00 0.00 53 1017.7
20260901195020 92 118 2.0 7.0 0.00 0.00 0.00 52 1017.7
20260901194825 93 23 2.0 7.0 0.00 0.00 0.00 54 1018.7
20260901194516 92 130 2.0 7.0 0.00 0.00 0.00 53 1017.7
20260901194014 92 44 2.0 5.0 0.00 0.00 0.00 56 1017.8
20260901193512 92 355 2.0 7.0 0.00 0.00 0.00 55 1017.8
20260901193329 92 31 2.0 7.0 0.00 0.00 0.00 54 1018.9
20260901193008 92 63 2.0 8.0 0.00 0.00 0.00 55 1018.0
20260901192503 92 134 3.0 8.0 0.00 0.00 0.00 55 1018.2
20260901192107 91 145 3.0 8.0 0.00 0.00 0.00 55 1018.2
20260901192002 91 171 1.0 8.0 0.00 0.00 0.00 58 1018.2
20260901191816 92 107 3.0 8.0 0.00 0.00 0.00 55 1019.2
20260901191558 91 50 3.0 8.0 0.00 0.00 0.00 57 1018.4
20260901191057 91 140 2.0 7.0 0.00 0.00 0.00 56 1018.4
20260901190549 92 28 3.0 7.0 0.00 0.00 0.00 55 1018.5
20260901190326 92 360 3.0 7.0 0.00 0.00 0.00 57 1019.4
20260901190046 91 180 2.0 6.0 0.00 0.00 0.00 57 1018.4
20260901185544 91 63 3.0 7.0 0.00 0.00 0.00 56 1018.5
20260901185039 91 25 3.0 7.0 0.00 0.00 0.00 56 1018.6
20260901184822 92 38 2.0 7.0 0.00 0.00 0.00 58 1019.6
20260901184534 91 350 3.0 7.0 0.00 0.00 0.00 57 1018.7
20260901184030 92 69 2.0 8.0 0.00 0.00 0.00 57 1018.7
20260901183531 91 137 2.0 8.0 0.00 0.00 0.00 59 1018.8
20260901183316 91 96 5.0 8.0 0.00 0.00 0.00 58 1019.8
20260901183036 91 61 2.0 12.0 0.00 0.00 0.00 58 1018.9
20260901182517 91 58 4.0 12.0 0.00 0.00 0.00 58 1018.9
20260901182016 90 192 0.0 6.0 0.00 0.00 0.00 58 1018.9
20260901181824 91 43 0.0 6.0 0.00 0.00 0.00 58 1019.8
20260901181514 90 45 1.0 6.0 0.00 0.00 0.00 58 1018.9
20260901181009 90 18 2.0 9.0 0.00 0.00 0.00 62 1018.9
20260901180506 90 48 3.0 9.0 0.00 0.00 0.00 59 1019.0
20260901180326 91 70 3.0 9.0 0.00 0.00 0.00 59 1019.9
20260901180100 90 63 5.0 9.0 0.00 0.00 0.00 59 1019.1
20260901180002 90 102 4.0 8.0 0.00 0.00 0.00 60 1019.1
20260901175557 90 123 4.0 8.0 0.00 0.00 0.00 61 1019.1
20260901175058 89 94 1.0 9.0 0.00 0.00 0.00 61 1019.3
20260901174824 89 83 2.0 9.0 0.00 0.00 0.00 61 1020.3
20260901174551 88 71 3.0 9.0 0.00 0.00 0.00 61 1019.4
20260901174050 88 360 2.0 8.0 0.00 0.00 0.00 61 1019.5
20260901173551 89 346 3.0 8.0 0.00 0.00 0.00 60 1019.6
20260901173326 89 61 1.0 5.0 0.00 0.00 0.00 63 1020.6
20260901173053 89 355 1.0 5.0 0.00 0.00 0.00 62 1019.7
20260901172542 89 360 2.0 5.0 0.00 0.00 0.00 60 1019.8
20260901172041 89 5 2.0 10.0 0.00 0.00 0.00 61 1019.8
20260901171825 90 42 2.0 10.0 0.00 0.00 0.00 61 1020.8
20260901171537 89 65 2.0 10.0 0.00 0.00 0.00 59 1019.9
20260901171031 89 103 2.0 8.0 0.00 0.00 0.00 61 1019.9
20260901170531 89 61 3.0 8.0 0.00 0.00 0.00 60 1020.0
20260901170325 90 63 3.0 8.0 0.00 0.00 0.00 61 1020.9
20260901170005 89 78 2.0 9.0 0.00 0.00 0.00 60 1020.0
20260901165504 89 24 2.0 9.0 0.00 0.00 0.00 60 1020.0
20260901165101 89 82 4.0 9.0 0.00 0.00 0.00 62 1020.0
20260901165002 89 162 4.0 9.0 0.00 0.00 0.00 61 1020.0
20260901164822 89 65 4.0 9.0 0.00 0.00 0.00 63 1021.0
20260901164601 88 42 2.0 10.0 0.00 0.00 0.00 61 1020.0
20260901164055 88 360 2.0 10.0 0.00 0.00 0.00 60 1020.0
20260901163545 88 76 2.0 7.0 0.00 0.00 0.00 63 1020.0
20260901163338 89 69 3.0 10.0 0.00 0.00 0.00 60 1021.0
20260901163020 88 84 3.0 11.0 0.00 0.00 0.00 62 1020.2
20260901162518 88 115 4.0 11.0 0.00 0.00 0.00 60 1020.2
20260901162015 88 118 3.0 8.0 0.00 0.00 0.00 65 1020.3
20260901161815 88 10 3.0 8.0 0.00 0.00 0.00 62 1021.2
20260901161513 88 42 4.0 8.0 0.00 0.00 0.00 64 1020.3
20260901161011 88 94 1.0 8.0 0.00 0.00 0.00 64 1020.2
20260901160509 88 315 2.0 6.0 0.00 0.00 0.00 61 1020.2
20260901160317 88 326 2.0 6.0 0.00 0.00 0.00 61 1021.2
20260901160001 88 355 1.0 8.0 0.00 0.00 0.00 64 1020.4
20260901155557 88 338 3.0 8.0 0.00 0.00 0.00 61 1020.4
20260901155055 87 69 1.0 8.0 0.00 0.00 0.00 63 1020.4
20260901154832 87 9 3.0 8.0 0.00 0.00 0.00 65 1021.3
20260901154552 87 38 1.0 7.0 0.00 0.00 0.00 64 1020.4
20260901154049 86 360 1.0 9.0 0.00 0.00 0.00 65 1020.3
20260901153550 87 98 3.0 9.0 0.00 0.00 0.00 64 1020.3
20260901153333 87 26 3.0 9.0 0.00 0.00 0.00 62 1021.3
20260901153039 86 25 2.0 8.0 0.00 0.00 0.00 62 1020.4
20260901152535 86 19 3.0 8.0 0.00 0.00 0.00 65 1020.5
20260901152033 86 13 2.0 7.0 0.00 0.00 0.00 65 1020.5
20260901151830 87 15 2.0 7.0 0.00 0.00 0.00 67 1021.5
20260901151529 86 92 2.0 5.0 0.00 0.00 0.00 66 1020.5
20260901151027 86 49 1.0 5.0 0.00 0.00 0.00 68 1020.5
20260901150525 85 348 2.0 6.0 0.00 0.00 0.00 67 1020.5
20260901150329 86 293 2.0 6.0 0.00 0.00 0.00 69 1021.4
20260901150021 85 30 3.0 6.0 0.00 0.00 0.00 69 1020.4
20260901145519 85 40 1.0 5.0 0.00 0.00 0.00 68 1020.5
20260901145017 85 341 2.0 6.0 0.00 0.00 0.00 69 1020.5
20260901144828 86 66 2.0 6.0 0.00 0.00 0.00 69 1021.4
20260901144513 85 11 2.0 6.0 0.00 0.00 0.00 69 1020.4
20260901144012 85 355 1.0 6.0 0.00 0.00 0.00 71 1020.4
20260901143509 85 69 1.0 6.0 0.00 0.00 0.00 71 1020.3
20260901143329 85 14 2.0 6.0 0.00 0.00 0.00 70 1021.2
20260901143005 85 100 2.0 5.0 0.00 0.00 0.00 70 1020.3
20260901142558 85 60 2.0 5.0 0.00 0.00 0.00 70 1020.2
20260901142501 84 59 1.0 6.0 0.00 0.00 0.00 71 1020.2
20260901142053 84 46 2.0 6.0 0.00 0.00 0.00 72 1020.1
20260901141844 84 29 1.0 5.0 0.00 0.00 0.00 74 1021.0
20260901141529 84 355 2.0 5.0 0.00 0.00 0.00 72 1020.1
20260901141030 83 281 1.0 4.0 0.00 0.00 0.00 74 1020.2
20260901140524 83 23 2.0 4.0 0.00 0.00 0.00 72 1020.2
20260901140323 84 37 2.0 4.0 0.00 0.00 0.00 72 1021.1
20260901140033 83 70 1.0 5.0 0.00 0.00 0.00 76 1020.2
20260901135519 82 281 1.0 5.0 0.00 0.00 0.00 76 1020.1
20260901135015 82 329 1.0 6.0 0.00 0.00 0.00 78 1020.1
20260901134820 82 323 2.0 6.0 0.00 0.00 0.00 78 1020.9
20260901134510 82 355 2.0 6.0 0.00 0.00 0.00 79 1020.1
20260901134014 81 18 1.0 4.0 0.00 0.00 0.00 79 1020.1
20260901133511 81 338 1.0 4.0 0.00 0.00 0.00 81 1020.2
20260901133320 81 5 3.0 4.0 0.00 0.00 0.00 81 1021.1
20260901133007 81 349 0.0 3.0 0.00 0.00 0.00 83 1020.3
20260901132507 80 350 1.0 4.0 0.00 0.00 0.00 82 1020.1
20260901132006 80 355 1.0 4.0 0.00 0.00 0.00 83 1020.2
20260901131819 80 342 2.0 4.0 0.00 0.00 0.00 82 1021.0
20260901131504 80 351 1.0 5.0 0.00 0.00 0.00 83 1020.2
20260901131009 79 12 2.0 5.0 0.00 0.00 0.00 83 1020.0
20260901130510 79 83 0.0 2.0 0.00 0.00 0.00 85 1020.1
20260901130321 79 9 1.0 2.0 0.00 0.00 0.00 87 1021.0
20260901130025 78 60 0.0 2.0 0.00 0.00 0.00 88 1020.1
20260901125512 77 40 0.0 2.0 0.00 0.00 0.00 90 1020.1
20260901125019 77 40 0.0 2.0 0.00 0.00 0.00 91 1020.1
20260901124820 77 40 0.0 2.0 0.00 0.00 0.00 92 1021.1
20260901124523 76 326 0.0 1.0 0.00 0.00 0.00 92 1020.2
20260901124037 75 326 0.0 1.0 0.00 0.00 0.00 92 1020.3
20260901123537 75 29 0.0 2.0 0.00 0.00 0.00 92 1020.3
20260901123322 76 29 0.0 2.0 0.00 0.00 0.00 92 1021.1
20260901123041 75 29 1.0 2.0 0.00 0.00 0.00 92 1020.3
20260901122547 75 26 0.0 2.0 0.00 0.00 0.00 92 1020.3
20260901122048 74 54 0.0 2.0 0.00 0.00 0.00 92 1020.2
20260901121822 75 62 1.0 1.0 0.00 0.00 0.00 92 1021.0
20260901121549 74 62 0.0 1.0 0.00 0.00 0.00 92 1020.1
20260901121051 74 62 0.0 1.0 0.00 0.00 0.00 92 1020.0
20260901120554 74 62 0.0 1.0 0.00 0.00 0.00 92 1020.0
20260901120323 74 62 0.0 1.0 0.00 0.00 0.00 92 1020.8
20260901120057 74 62 0.0 1.0 0.00 0.00 0.00 92 1019.9
20260901115557 73 62 0.0 1.0 0.00 0.00 0.00 92 1019.7
20260901115059 73 62 0.0 1.0 0.00 0.00 0.00 92 1019.7
20260901115004 73 62 0.0 1.0 0.00 0.00 0.00 92 1019.7
20260901114839 74 62 0.0 1.0 0.00 0.00 0.00 92 1020.6
20260901114538 73 62 0.0 1.0 0.00 0.00 0.00 92 1019.7
20260901114042 73 62 0.0 1.0 0.00 0.00 0.00 92 1019.7
20260901113546 73 62 0.0 1.0 0.00 0.00 0.00 92 1019.7
20260901113320 73 62 0.0 1.0 0.00 0.00 0.00 92 1020.5
20260901113050 73 62 0.0 1.0 0.00 0.00 0.00 92 1019.6
20260901112554 73 62 0.0 0.0 0.00 0.00 0.00 92 1019.5
20260901112100 73 62 0.0 0.0 0.00 0.00 0.00 92 1019.5
20260901112004 73 62 0.0 0.0 0.00 0.00 0.00 92 1019.4
20260901111820 73 62 0.0 0.0 0.00 0.00 0.00 92 1020.4
20260901111509 73 62 0.0 0.0 0.00 0.00 0.00 92 1019.4
20260901111008 73 62 0.0 0.0 0.00 0.00 0.00 92 1019.4
20260901110511 73 62 0.0 0.0 0.00 0.00 0.00 92 1019.2
20260901110323 73 62 0.0 1.0 0.00 0.00 0.00 92 1020.1
20260901110008 73 62 0.0 1.0 0.00 0.00 0.00 92 1019.2
20260901105502 73 62 0.0 1.0 0.00 0.00 0.00 92 1019.1
20260901105055 73 62 0.0 0.0 0.00 0.00 0.00 92 1019.1
20260901105001 73 62 0.0 0.0 0.00 0.00 0.00 92 1019.1
20260901104847 74 62 0.0 0.0 0.00 0.00 0.00 92 1020.0
20260901104527 73 62 0.0 0.0 0.00 0.00 0.00 92 1019.1
20260901104027 73 62 0.0 0.0 0.00 0.00 0.00 92 1019.1
20260901103525 73 62 0.0 1.0 0.00 0.00 0.00 92 1019.1
20260901103332 74 62 0.0 1.0 0.00 0.00 0.00 92 1020.0
20260901103024 73 62 0.0 1.0 0.00 0.00 0.00 92 1019.1
20260901102515 73 62 0.0 1.0 0.00 0.00 0.00 92 1019.2
20260901102007 73 62 0.0 1.0 0.00 0.00 0.00 92 1019.2
20260901101837 74 62 0.0 1.0 0.00 0.00 0.00 92 1020.0
20260901101538 73 62 0.0 1.0 0.00 0.00 0.00 92 1019.0
20260901101040 73 62 0.0 3.0 0.00 0.00 0.00 92 1019.0
20260901100532 73 62 0.0 1.0 0.00 0.00 0.00 91 1018.9
20260901100325 74 55 0.0 1.0 0.00 0.00 0.00 91 1019.7
20260901100024 74 55 0.0 0.0 0.00 0.00 0.00 91 1018.9
20260901095520 74 55 0.0 0.0 0.00 0.00 0.00 91 1018.8
20260901095018 74 55 0.0 0.0 0.00 0.00 0.00 91 1018.8
20260901094830 74 55 0.0 0.0 0.00 0.00 0.00 91 1019.6
20260901094515 74 55 0.0 0.0 0.00 0.00 0.00 91 1018.6
20260901094013 74 55 0.0 0.0 0.00 0.00 0.00 91 1018.6
20260901093511 74 55 0.0 0.0 0.00 0.00 0.00 91 1018.7
20260901093318 74 55 0.0 0.0 0.00 0.00 0.00 91 1019.5
20260901093004 74 55 0.0 0.0 0.00 0.00 0.00 91 1018.5
20260901092600 74 55 0.0 0.0 0.00 0.00 0.00 91 1018.6
20260901092502 74 55 0.0 0.0 0.00 0.00 0.00 91 1018.6
20260901092059 74 55 0.0 0.0 0.00 0.00 0.00 91 1018.6
20260901091821 74 55 0.0 1.0 0.00 0.00 0.00 91 1019.5
20260901091556 74 55 0.0 1.0 0.00 0.00 0.00 91 1018.6
20260901091053 74 55 0.0 1.0 0.00 0.00 0.00 91 1018.6
20260901090546 74 55 0.0 1.0 0.00 0.00 0.00 91 1018.6
20260901090329 75 55 0.0 1.0 0.00 0.00 0.00 91 1019.5
20260901090038 74 55 0.0 1.0 0.00 0.00 0.00 91 1018.7
20260901085535 74 55 0.0 2.0 0.00 0.00 0.00 91 1018.7
20260901085034 74 55 0.0 2.0 0.00 0.00 0.00 91 1018.7
20260901084813 75 55 0.0 2.0 0.00 0.00 0.00 90 1019.5
20260901084533 74 88 0.0 1.0 0.00 0.00 0.00 90 1018.7
20260901084024 74 88 0.0 0.0 0.00 0.00 0.00 90 1018.7
20260901083521 74 88 0.0 1.0 0.00 0.00 0.00 90 1018.6
20260901083321 75 88 0.0 1.0 0.00 0.00 0.00 90 1019.5
20260901083017 75 88 0.0 1.0 0.00 0.00 0.00 90 1018.7
20260901082514 75 88 0.0 1.0 0.00 0.00 0.00 90 1018.6
20260901082013 75 88 0.0 1.0 0.00 0.00 0.00 90 1018.5
20260901081827 75 88 0.0 0.0 0.00 0.00 0.00 90 1019.5
20260901081506 75 88 0.0 0.0 0.00 0.00 0.00 90 1018.5
20260901081004 75 88 0.0 0.0 0.00 0.00 0.00 90 1018.6
20260901080600 75 89 0.0 0.0 0.00 0.00 0.00 89 1018.6
20260901080502 75 88 0.0 0.0 0.00 0.00 0.00 89 1018.6
20260901080314 76 89 0.0 0.0 0.00 0.00 0.00 89 1019.6
20260901080056 75 88 0.0 1.0 0.00 0.00 0.00 89 1018.6
20260901075554 75 88 0.0 1.0 0.00 0.00 0.00 89 1018.6
20260901075053 75 88 0.0 1.0 0.00 0.00 0.00 89 1018.6
20260901075001 75 88 0.0 1.0 0.00 0.00 0.00 89 1018.6
20260901074831 76 105 0.0 1.0 0.00 0.00 0.00 89 1019.6
20260901074546 75 105 0.0 1.0 0.00 0.00 0.00 89 1018.7
20260901074036 75 105 0.0 2.0 0.00 0.00 0.00 89 1018.7
20260901073530 75 102 1.0 3.0 0.00 0.00 0.00 89 1018.5
20260901073332 76 134 1.0 3.0 0.00 0.00 0.00 89 1019.5
20260901073025 75 132 1.0 3.0 0.00 0.00 0.00 89 1018.6
20260901072520 75 155 1.0 2.0 0.00 0.00 0.00 89 1018.6
20260901072018 76 132 0.0 2.0 0.00 0.00 0.00 88 1018.5
20260901071836 76 137 1.0 3.0 0.00 0.00 0.00 88 1019.4
20260901071523 76 135 0.0 3.0 0.00 0.00 0.00 88 1018.5
20260901071018 76 126 0.0 2.0 0.00 0.00 0.00 88 1018.5
20260901070600 76 121 0.0 3.0 0.00 0.00 0.00 88 1018.5
20260901070504 76 119 0.0 3.0 0.00 0.00 0.00 88 1018.5
20260901070403 76 161 0.0 3.0 0.00 0.00 0.00 88 1019.5
20260901070026 76 128 0.0 3.0 0.00 0.00 0.00 88 1018.6
20260901065530 76 123 0.0 2.0 0.00 0.00 0.00 88 1018.7
20260901065038 76 119 1.0 4.0 0.00 0.00 0.00 88 1018.7
20260901064813 77 117 1.0 4.0 0.00 0.00 0.00 88 1019.7
20260901064542 76 117 1.0 4.0 0.00 0.00 0.00 88 1018.7
20260901064042 76 155 0.0 3.0 0.00 0.00 0.00 87 1018.7
20260901063541 76 117 0.0 3.0 0.00 0.00 0.00 87 1018.8
20260901063321 77 120 2.0 3.0 0.00 0.00 0.00 87 1019.8
20260901063039 76 146 1.0 3.0 0.00 0.00 0.00 87 1018.9
20260901062546 77 113 2.0 3.0 0.00 0.00 0.00 87 1018.9
20260901062046 77 136 0.0 3.0 0.00 0.00 0.00 86 1018.9
20260901061825 77 144 1.0 3.0 0.00 0.00 0.00 86 1019.9
20260901061546 77 115 1.0 3.0 0.00 0.00 0.00 86 1018.9
20260901061048 77 109 0.0 4.0 0.00 0.00 0.00 86 1019.0
20260901060554 77 138 1.0 4.0 0.00 0.00 0.00 86 1019.1
20260901060332 77 109 1.0 3.0 0.00 0.00 0.00 86 1019.9
20260901060058 77 133 1.0 3.0 0.00 0.00 0.00 86 1019.1
20260901055558 77 107 0.0 3.0 0.00 0.00 0.00 86 1019.2
20260901055502 77 124 1.0 3.0 0.00 0.00 0.00 86 1019.1
20260901055007 77 103 1.0 3.0 0.00 0.00 0.00 86 1019.1
20260901054819 78 111 1.0 3.0 0.00 0.00 0.00 86 1020.1
20260901054558 77 128 1.0 3.0 0.00 0.00 0.00 86 1019.2
20260901054056 77 134 1.0 3.0 0.00 0.00 0.00 86 1019.3
20260901053558 77 96 0.0 2.0 0.00 0.00 0.00 86 1019.4
20260901053330 78 125 1.0 2.0 0.00 0.00 0.00 86 1020.3
20260901053117 77 154 0.0 3.0 0.00 0.00 0.00 85 1019.3
20260901052546 78 114 0.0 3.0 0.00 0.00 0.00 85 1019.4
20260901052040 78 177 0.0 3.0 0.00 0.00 0.00 85 1019.3
20260901051836 78 133 1.0 3.0 0.00 0.00 0.00 85 1020.2
20260901051516 78 119 0.0 3.0 0.00 0.00 0.00 85 1019.3
20260901051012 78 123 0.0 4.0 0.00 0.00 0.00 85 1019.4
20260901050508 78 159 1.0 4.0 0.00 0.00 0.00 85 1019.5
20260901050327 78 124 2.0 3.0 0.00 0.00 0.00 85 1020.4
20260901050004 78 108 0.0 2.0 0.00 0.00 0.00 85 1019.5
20260901045600 78 132 0.0 3.0 0.00 0.00 0.00 85 1019.5
20260901045503 78 150 0.0 3.0 0.00 0.00 0.00 85 1019.5
20260901045056 78 114 1.0 3.0 0.00 0.00 0.00 85 1019.4
20260901044815 79 121 1.0 3.0 0.00 0.00 0.00 85 1020.3
20260901044605 78 144 0.0 3.0 0.00 0.00 0.00 84 1019.4
20260901044050 78 163 0.0 3.0 0.00 0.00 0.00 84 1019.5
20260901043546 78 142 1.0 5.0 0.00 0.00 0.00 84 1019.5
20260901043327 79 155 2.0 5.0 0.00 0.00 0.00 84 1020.3
20260901043038 78 159 2.0 6.0 0.00 0.00 0.00 84 1019.4
20260901042539 79 187 0.0 6.0 0.00 0.00 0.00 84 1019.4
20260901042038 79 151 1.0 4.0 0.00 0.00 0.00 83 1019.5
20260901041816 79 142 1.0 4.0 0.00 0.00 0.00 83 1020.4
20260901041535 79 168 1.0 4.0 0.00 0.00 0.00 83 1019.6
20260901041028 79 161 1.0 6.0 0.00 0.00 0.00 83 1019.6
20260901040524 79 107 1.0 7.0 0.00 0.00 0.00 83 1019.6
20260901040324 79 137 1.0 7.0 0.00 0.00 0.00 83 1020.3
20260901040025 79 164 2.0 7.0 0.00 0.00 0.00 83 1019.5
20260901035524 79 161 1.0 5.0 0.00 0.00 0.00 82 1019.5
20260901035033 79 116 1.0 5.0 0.00 0.00 0.00 83 1019.5
20260901034815 80 104 2.0 5.0 0.00 0.00 0.00 83 1020.4
20260901034532 79 119 0.0 4.0 0.00 0.00 0.00 83 1019.6
20260901034035 79 111 1.0 4.0 0.00 0.00 0.00 83 1019.6
20260901033537 79 103 1.0 3.0 0.00 0.00 0.00 83 1019.5
20260901033320 80 113 0.0 3.0 0.00 0.00 0.00 83 1020.4
20260901033036 79 165 0.0 2.0 0.00 0.00 0.00 82 1019.6
20260901032528 79 128 0.0 4.0 0.00 0.00 0.00 82 1019.6
20260901032027 79 107 0.0 4.0 0.00 0.00 0.00 82 1019.6
20260901031819 80 106 0.0 4.0 0.00 0.00 0.00 82 1020.5
20260901031524 80 165 0.0 2.0 0.00 0.00 0.00 82 1019.5
20260901031020 80 141 0.0 3.0 0.00 0.00 0.00 81 1019.5
20260901030516 80 141 1.0 3.0 0.00 0.00 0.00 81 1019.4
20260901030320 80 110 1.0 3.0 0.00 0.00 0.00 81 1020.4
20260901030012 80 111 0.0 3.0 0.00 0.00 0.00 81 1019.5
20260901025510 80 144 0.0 3.0 0.00 0.00 0.00 81 1019.5
20260901025007 80 127 0.0 2.0 0.00 0.00 0.00 81 1019.6
20260901024818 80 127 0.0 2.0 0.00 0.00 0.00 80 1020.4
20260901024600 80 127 0.0 3.0 0.00 0.00 0.00 81 1019.5
20260901024505 80 127 0.0 3.0 0.00 0.00 0.00 80 1019.4
20260901024058 80 123 0.0 3.0 0.00 0.00 0.00 80 1019.5
20260901023558 80 111 0.0 2.0 0.00 0.00 0.00 80 1019.5
20260901023320 81 141 0.0 2.0 0.00 0.00 0.00 80 1020.4
20260901023103 80 123 0.0 2.0 0.00 0.00 0.00 80 1019.5
20260901022548 80 162 0.0 3.0 0.00 0.00 0.00 80 1019.4
20260901022050 80 169 0.0 3.0 0.00 0.00 0.00 79 1019.4
20260901021819 81 184 1.0 3.0 0.00 0.00 0.00 79 1020.3
20260901021546 81 145 1.0 3.0 0.00 0.00 0.00 79 1019.3
20260901021040 81 118 1.0 4.0 0.00 0.00 0.00 79 1019.4
20260901020540 81 118 1.0 4.0 0.00 0.00 0.00 78 1019.3
20260901020320 81 136 2.0 4.0 0.00 0.00 0.00 78 1020.2
20260901020040 81 161 1.0 3.0 0.00 0.00 0.00 78 1019.3
20260901015529 81 136 1.0 4.0 0.00 0.00 0.00 78 1019.2
20260901015026 81 132 1.0 4.0 0.00 0.00 0.00 77 1019.3
20260901014818 82 159 3.0 4.0 0.00 0.00 0.00 77 1020.1
20260901014522 82 120 1.0 4.0 0.00 0.00 0.00 77 1019.2
20260901014020 82 148 1.0 4.0 0.00 0.00 0.00 76 1019.1
20260901013518 82 136 1.0 5.0 0.00 0.00 0.00 76 1019.0
20260901013318 82 120 2.0 5.0 0.00 0.00 0.00 75 1019.8
20260901013014 82 164 1.0 6.0 0.00 0.00 0.00 75 1018.9
20260901012511 82 135 1.0 6.0 0.00 0.00 0.00 74 1018.8
20260901012010 83 174 2.0 8.0 0.00 0.00 0.00 73 1018.7
20260901011816 83 182 2.0 8.0 0.00 0.00 0.00 73 1019.5
20260901011519 83 123 1.0 10.0 0.00 0.00 0.00 72 1018.6
20260901011006 83 139 4.0 10.0 0.00 0.00 0.00 72 1018.6
20260901010504 83 32 0.0 2.0 0.00 0.00 0.00 72 1018.4
20260901010316 83 32 1.0 2.0 0.00 0.00 0.00 72 1019.2
20260901010058 83 32 0.0 1.0 0.00 0.00 0.00 72 1018.3
20260901005556 83 32 0.0 1.0 0.00 0.00 0.00 72 1018.3
20260901005054 84 32 0.0 1.0 0.00 0.00 0.00 72 1018.1
20260901004815 84 32 0.0 1.0 0.00 0.00 0.00 72 1019.0
20260901004557 84 32 0.0 1.0 0.00 0.00 0.00 72 1018.1
20260901004047 84 32 0.0 2.0 0.00 0.00 0.00 71 1018.2
20260901003546 84 32 0.0 2.0 0.00 0.00 0.00 69 1018.1
20260901003322 85 32 1.0 2.0 0.00 0.00 0.00 69 1019.1
20260901003044 85 32 0.0 2.0 0.00 0.00 0.00 69 1018.1
20260901002545 85 32 0.0 2.0 0.00 0.00 0.00 68 1018.1
20260901002045 85 32 0.0 2.0 0.00 0.00 0.00 68 1018.1
20260901001821 86 32 0.0 2.0 0.00 0.00 0.00 67 1019.0
20260901001538 86 32 0.0 2.0 0.00 0.00 0.00 67 1018.1
20260901001029 86 32 0.0 2.0 0.00 0.00 0.00 67 1018.0
20260901000527 86 32 0.0 2.0 0.00 0.00 0.00 65 1017.9
20260901000322 87 56 0.0 2.0 0.00 0.00 0.00 65 1018.9
20260901000023 87 56 0.0 2.0 0.00 0.00 0.00 65 1017.9
20260831235522 87 74 0.0 2.0 0.00 0.00 0.00 64 1017.9
20260831235020 87 62 0.0 2.0 0.00 0.00 0.00 63 1017.9
20260831234822 88 87 0.0 2.0 0.00 0.00 0.00 63 1018.7
20260831234518 88 64 0.0 2.0 0.00 0.00 0.00 63 1017.8
20260831234017 88 68 0.0 3.0 0.00 0.00 0.00 62 1017.7
20260831233513 88 51 0.0 3.0 0.00 0.00 0.00 61 1017.6
20260831233323 89 57 0.0 3.0 0.00 0.00 0.00 61 1018.5
20260831233009 88 52 0.0 3.0 0.00 0.00 0.00 61 1017.6
20260831232507 89 23 1.0 4.0 0.00 0.00 0.00 60 1017.7
20260831232008 89 59 1.0 4.0 0.00 0.00 0.00 59 1017.6
20260831231823 89 22 1.0 4.0 0.00 0.00 0.00 59 1018.4
20260831231600 89 51 1.0 4.0 0.00 0.00 0.00 59 1017.6
20260831231502 89 67 1.0 5.0 0.00 0.00 0.00 59 1017.6
20260831231058 89 329 1.0 5.0 0.00 0.00 0.00 59 1017.7
20260831230556 89 24 1.0 4.0 0.00 0.00 0.00 59 1017.7
20260831230325 90 355 1.0 4.0 0.00 0.00 0.00 59 1018.6
20260831230055 89 33 0.0 5.0 0.00 0.00 0.00 59 1017.8
20260831225553 89 63 1.0 5.0 0.00 0.00 0.00 59 1017.7
20260831225047 90 20 1.0 6.0 0.00 0.00 0.00 58 1017.7
20260831224825 90 52 3.0 6.0 0.00 0.00 0.00 58 1018.5
20260831224544 90 32 1.0 4.0 0.00 0.00 0.00 58 1017.7
20260831224042 90 9 1.0 6.0 0.00 0.00 0.00 57 1017.6
20260831223536 90 28 2.0 6.0 0.00 0.00 0.00 56 1017.5
20260831223347 91 40 3.0 5.0 0.00 0.00 0.00 57 1018.4
20260831223012 90 59 2.0 5.0 0.00 0.00 0.00 57 1017.6
20260831222510 90 360 1.0 5.0 0.00 0.00 0.00 57 1017.6
20260831222007 90 68 2.0 8.0 0.00 0.00 0.00 57 1017.6
20260831221824 91 73 2.0 8.0 0.00 0.00 0.00 56 1018.4
20260831221505 91 12 2.0 8.0 0.00 0.00 0.00 57 1017.7
20260831221059 91 321 2.0 8.0 0.00 0.00 0.00 56 1017.7
20260831221002 91 54 0.0 5.0 0.00 0.00 0.00 56 1017.8
20260831220557 91 55 2.0 5.0 0.00 0.00 0.00 56 1017.8
20260831220326 92 19 2.0 7.0 0.00 0.00 0.00 57 1018.7
20260831215554 91 65 3.0 7.0 0.00 0.00 0.00 55 1017.8
20260831215046 91 62 1.0 6.0 0.00 0.00 0.00 56 1017.9
20260831214845 92 325 2.0 6.0 0.00 0.00 0.00 55 1018.7
20260831214521 91 59 1.0 7.0 0.00 0.00 0.00 56 1017.8
20260831214022 91 92 2.0 7.0 0.00 0.00 0.00 54 1017.9
20260831213517 91 57 2.0 7.0 0.00 0.00 0.00 54 1017.9
20260831213326 91 36 1.0 6.0 0.00 0.00 0.00 54 1018.7
20260831213014 91 13 1.0 6.0 0.00 0.00 0.00 54 1017.9
20260831212511 91 54 3.0 6.0 0.00 0.00 0.00 52 1017.9
20260831212010 92 346 1.0 5.0 0.00 0.00 0.00 54 1017.9
20260831211825 92 54 2.0 5.0 0.00 0.00 0.00 52 1018.8
20260831211508 92 79 1.0 5.0 0.00 0.00 0.00 53 1017.9
20260831211008 92 360 2.0 5.0 0.00 0.00 0.00 54 1017.9
20260831210507 91 350 1.0 5.0 0.00 0.00 0.00 52 1018.0
20260831210329 92 79 1.0 7.0 0.00 0.00 0.00 54 1019.0
20260831210004 91 77 1.0 7.0 0.00 0.00 0.00 51 1018.1